Location: Bennemühlen
(52.5740°N, 9.7135°E)
Time: 23:52:50
(UTC+00:00)

Cosmos 1766 - Pass Details

Date: 19 May 2025
Orbit: 443 x 457 km, 82.5° (Epoch: 15 June)

Event Time Altitude Azimuth Distance (km) Brightness Sun altitude
Rises 23:00:50 0° 339° (NNW) 2,465 8.1 -17.4°
Reaches altitude 10° 23:03:09 10° 325° (NW) 1,584 6.5 -17.4°
Maximum altitude 23:05:59 24° 270° (W) 969 4.6 -17.4°
Enters shadow 23:06:56 21° 244° (WSW) 1,053 4.5 -17.4°
